TimeCDT,TemperatureF,Dew PointF,Humidity,Sea Level PressureIn,VisibilityMPH,Wind Direction,Wind SpeedMPH,Gust SpeedMPH,PrecipitationIn,Events,Conditions,WindDirDegrees,DateUTC
12:15 AM,81.0,61.7,52,30.02,10.0,Calm,Calm,-,N/A,,Clear,0,2013-08-30 05:15:00
12:35 AM,80.8,61.9,52,30.02,10.0,South,3.5,-,N/A,,Clear,180,2013-08-30 05:35:00
12:55 AM,79.9,62.1,54,30.02,10.0,SSE,3.5,-,N/A,,Clear,160,2013-08-30 05:55:00
1:15 AM,79.7,62.6,56,30.01,10.0,South,4.6,-,N/A,,Clear,170,2013-08-30 06:15:00
1:35 AM,78.8,63.0,58,30.01,10.0,South,3.5,-,N/A,,Clear,170,2013-08-30 06:35:00
1:55 AM,79.0,62.8,57,30.01,10.0,Calm,Calm,-,N/A,,Clear,0,2013-08-30 06:55:00
2:15 AM,78.4,62.6,58,30.01,10.0,Calm,Calm,-,N/A,,Clear,0,2013-08-30 07:15:00
2:35 AM,77.0,63.1,62,30.00,10.0,South,4.6,-,N/A,,Clear,170,2013-08-30 07:35:00
2:55 AM,76.5,63.1,63,30.00,10.0,SSE,4.6,-,N/A,,Clear,160,2013-08-30 07:55:00
3:15 AM,76.3,63.1,64,30.01,10.0,South,4.6,-,N/A,,Clear,170,2013-08-30 08:15:00
3:35 AM,76.3,62.6,62,30.00,10.0,South,3.5,-,N/A,,Clear,170,2013-08-30 08:35:00
3:55 AM,76.1,62.1,62,30.00,10.0,SSE,4.6,-,N/A,,Clear,160,2013-08-30 08:55:00
4:15 AM,75.6,62.6,64,29.99,10.0,South,6.9,-,N/A,,Clear,180,2013-08-30 09:15:00
4:35 AM,75.4,62.6,64,29.99,10.0,SSE,4.6,-,N/A,,Clear,150,2013-08-30 09:35:00
4:55 AM,74.8,62.8,66,29.99,10.0,SSE,5.8,-,N/A,,Clear,160,2013-08-30 09:55:00
5:15 AM,75.2,62.6,65,29.99,10.0,SSE,5.8,-,N/A,,Clear,150,2013-08-30 10:15:00
5:35 AM,75.2,62.2,64,29.99,10.0,Calm,Calm,-,N/A,,Clear,0,2013-08-30 10:35:00
5:55 AM,74.8,61.9,64,30.00,10.0,SSE,6.9,-,N/A,,Clear,150,2013-08-30 10:55:00
6:15 AM,74.8,61.0,62,30.00,10.0,SSE,6.9,-,N/A,,Clear,150,2013-08-30 11:15:00
6:35 AM,74.3,60.8,63,30.01,10.0,South,4.6,-,N/A,,Clear,190,2013-08-30 11:35:00
6:55 AM,75.2,60.4,60,30.01,10.0,SSE,3.5,-,N/A,,Clear,160,2013-08-30 11:55:00
7:15 AM,74.7,60.8,62,30.02,10.0,South,3.5,-,N/A,,Clear,180,2013-08-30 12:15:00
8:55 AM,80.4,61.3,52,30.05,10.0,Calm,Calm,-,N/A,,Clear,0,2013-08-30 13:55:00
9:15 AM,83.3,60.8,46,30.05,10.0,Calm,Calm,-,N/A,,Clear,0,2013-08-30 14:15:00
9:35 AM,86.7,59.5,40,30.05,10.0,Calm,Calm,-,N/A,,Clear,0,2013-08-30 14:35:00
9:55 AM,88.3,59.5,38,30.05,10.0,Calm,Calm,-,N/A,,Clear,0,2013-08-30 14:55:00
10:15 AM,90.5,58.8,34,30.06,10.0,West,4.6,-,N/A,,Clear,270,2013-08-30 15:15:00
10:55 AM,93.6,57.6,30,30.05,10.0,WNW,5.8,-,N/A,,Clear,290,2013-08-30 15:55:00
11:15 AM,94.5,57.7,29,30.05,10.0,West,5.8,-,N/A,,Clear,280,2013-08-30 16:15:00
11:35 AM,95.2,58.8,30,30.04,10.0,Calm,Calm,-,N/A,,Clear,0,2013-08-30 16:35:00
11:55 AM,95.9,57.6,28,30.04,10.0,WSW,6.9,-,N/A,,Clear,240,2013-08-30 16:55:00
12:15 PM,96.6,55.9,26,30.03,10.0,South,4.6,-,N/A,,Clear,170,2013-08-30 17:15:00
12:35 PM,97.0,55.9,25,30.03,10.0,WSW,10.4,-,N/A,,Clear,240,2013-08-30 17:35:00
12:55 PM,97.7,55.4,24,30.02,10.0,Calm,Calm,-,N/A,,Clear,0,2013-08-30 17:55:00
1:15 PM,97.7,54.5,23,30.01,10.0,WSW,5.8,-,N/A,,Clear,240,2013-08-30 18:15:00
1:35 PM,98.4,55.4,24,30.00,10.0,South,11.5,-,N/A,,Clear,190,2013-08-30 18:35:00
1:55 PM,98.6,54.3,23,29.99,10.0,Calm,Calm,-,N/A,,Clear,0,2013-08-30 18:55:00
2:15 PM,99.5,54.0,22,29.98,10.0,SE,4.6,-,N/A,,Clear,140,2013-08-30 19:15:00
2:35 PM,100.0,54.3,22,29.97,10.0,WNW,10.4,-,N/A,,Clear,290,2013-08-30 19:35:00
2:55 PM,99.9,52.9,21,29.96,10.0,Calm,Calm,-,N/A,,Clear,0,2013-08-30 19:55:00
3:15 PM,100.8,53.4,20,29.96,10.0,WSW,6.9,-,N/A,,Clear,240,2013-08-30 20:15:00
3:35 PM,101.1,53.4,20,29.94,10.0,SSW,3.5,-,N/A,,Clear,210,2013-08-30 20:35:00
3:55 PM,100.9,52.3,20,29.94,10.0,Calm,Calm,-,N/A,,Clear,0,2013-08-30 20:55:00
4:15 PM,100.4,52.2,20,29.93,10.0,Calm,Calm,-,N/A,,Clear,0,2013-08-30 21:15:00
4:35 PM,100.8,51.8,19,29.93,10.0,West,3.5,-,N/A,,Clear,280,2013-08-30 21:35:00
4:55 PM,101.3,53.2,20,29.92,10.0,WNW,5.8,-,N/A,,Clear,300,2013-08-30 21:55:00
5:15 PM,101.5,50.5,18,29.91,10.0,Calm,Calm,-,N/A,,Clear,0,2013-08-30 22:15:00
5:35 PM,101.7,51.6,19,29.91,10.0,WSW,9.2,-,N/A,,Clear,240,2013-08-30 22:35:00
5:55 PM,101.1,51.6,19,29.90,10.0,WSW,4.6,-,N/A,,Clear,250,2013-08-30 22:55:00
6:15 PM,101.1,52.5,20,29.90,10.0,SW,12.7,-,N/A,,Clear,230,2013-08-30 23:15:00
6:35 PM,100.4,52.3,20,29.90,10.0,SW,9.2,-,N/A,,Clear,230,2013-08-30 23:35:00
6:55 PM,99.5,52.2,20,29.90,10.0,WSW,5.8,-,N/A,,Clear,250,2013-08-30 23:55:00
7:15 PM,99.0,52.0,21,29.90,10.0,West,8.1,-,N/A,,Clear,260,2013-08-31 00:15:00
7:35 PM,97.9,52.0,21,29.90,10.0,West,6.9,-,N/A,,Clear,260,2013-08-31 00:35:00
7:55 PM,95.9,53.1,23,29.90,10.0,SW,4.6,-,N/A,,Clear,220,2013-08-31 00:55:00
8:15 PM,94.1,53.2,25,29.90,10.0,SW,5.8,-,N/A,,Clear,220,2013-08-31 01:15:00
8:35 PM,91.8,54.5,28,29.91,10.0,SSW,5.8,-,N/A,,Clear,210,2013-08-31 01:35:00
8:55 PM,91.0,54.3,29,29.91,10.0,SSW,8.1,-,N/A,,Clear,200,2013-08-31 01:55:00
9:15 PM,90.9,54.1,29,29.91,10.0,South,6.9,-,N/A,,Clear,170,2013-08-31 02:15:00
9:35 PM,90.1,54.7,30,29.92,10.0,SSE,8.1,-,N/A,,Clear,160,2013-08-31 02:35:00
9:55 PM,89.1,56.1,33,29.92,10.0,South,8.1,-,N/A,,Clear,170,2013-08-31 02:55:00
10:15 PM,89.2,55.6,32,29.92,10.0,South,8.1,-,N/A,,Clear,190,2013-08-31 03:15:00
10:35 PM,88.3,55.8,33,29.91,10.0,South,5.8,-,N/A,,Clear,180,2013-08-31 03:35:00
10:55 PM,85.6,58.3,39,29.91,10.0,SSE,8.1,-,N/A,,Clear,160,2013-08-31 03:55:00
11:15 PM,85.8,57.6,38,29.91,10.0,South,9.2,-,N/A,,Clear,180,2013-08-31 04:15:00
11:35 PM,85.6,57.6,38,29.91,10.0,South,6.9,-,N/A,,Clear,180,2013-08-31 04:35:00
11:55 PM,84.0,58.1,41,29.91,10.0,SSE,8.1,-,N/A,,Clear,160,2013-08-31 04:55:00